GW0378 Weather Reports


Display with metric or nautical units.
time (UTC)temp
F
wind
direction
speed
MPH
gust
MPH
rain 1hr
in
rain 24hr
in
rain mn
in
humidity
%
barometer
mb
20260506073044 42 98 7.0 9.0 0.00 0.00 0.00 53 1019.1
20260506072541 42 111 4.0 5.0 0.00 0.00 0.00 54 1019.0
20260506072039 43 141 3.0 8.0 0.00 0.00 0.00 53 1019.0
20260506071537 43 116 4.0 8.0 0.00 0.00 0.00 53 1019.0
20260506071034 43 118 3.0 4.0 0.00 0.00 0.00 54 1018.9
20260506070531 43 144 6.0 9.0 0.00 0.00 0.00 53 1019.0
20260506062508 43 98 2.0 8.0 0.00 0.00 0.00 54 1018.9
20260506062005 43 110 4.0 5.0 0.00 0.00 0.00 55 1019.0
20260506061501 44 116 3.0 9.0 0.00 0.00 0.00 54 1018.7
20260506060959 44 145 3.0 3.0 0.00 0.00 0.00 53 1018.7
20260506060457 45 115 9.0 17.0 0.00 0.00 0.00 51 1018.6
20260506050926 45 117 0.0 5.0 0.00 0.00 0.00 53 1018.0
20260506050424 45 101 2.0 3.0 0.00 0.00 0.00 53 1018.2
20260506044914 46 90 2.0 3.0 0.00 0.00 0.00 51 1018.0
20260506044412 46 78 1.0 3.0 0.00 0.00 0.00 51 1018.1
20260506043909 46 85 3.0 5.0 0.00 0.00 0.00 51 1017.9
20260506043406 47 111 3.0 13.0 0.00 0.00 0.00 49 1018.1
20260506042904 47 99 8.0 9.0 0.00 0.00 0.00 50 1018.0
20260506042403 47 125 6.0 15.0 0.00 0.00 0.00 49 1018.0
20260506041901 47 129 12.0 13.0 0.00 0.00 0.00 49 1017.7
20260506041358 47 112 7.0 16.0 0.00 0.00 0.00 50 1017.9
20260506040855 47 109 11.0 12.0 0.00 0.00 0.00 50 1017.9
20260506040352 48 109 6.0 9.0 0.00 0.00 0.00 50 1017.5
20260506035848 48 102 1.0 12.0 0.00 0.00 0.00 50 1017.7
20260506035346 48 118 6.0 11.0 0.00 0.00 0.00 50 1017.5
20260506034843 48 148 7.0 16.0 0.00 0.00 0.00 48 1017.6
20260506034340 49 108 7.0 21.0 0.00 0.00 0.00 48 1017.4
20260506033837 49 111 12.0 14.0 0.00 0.00 0.00 48 1017.5
20260506033334 50 90 5.0 10.0 0.00 0.00 0.00 47 1017.4
20260506032831 50 97 14.0 14.0 0.00 0.00 0.00 47 1017.2
20260506032327 49 102 9.0 14.0 0.00 0.00 0.00 48 1017.2
20260506031825 49 65 7.0 16.0 0.00 0.00 0.00 48 1017.0
20260506031322 49 110 8.0 21.0 0.00 0.00 0.00 48 1017.1
20260506030819 49 133 8.0 19.0 0.00 0.00 0.00 48 1016.9
20260506030317 50 122 5.0 21.0 0.00 0.00 0.00 48 1016.7
20260506025814 50 122 10.0 16.0 0.00 0.00 0.00 49 1016.7
20260506025310 50 110 4.0 16.0 0.00 0.00 0.00 48 1016.4
20260506024808 50 99 8.0 15.0 0.00 0.00 0.00 48 1016.5
20260506024304 51 115 11.0 17.0 0.00 0.00 0.00 47 1016.2
20260506023800 51 87 7.0 20.0 0.00 0.00 0.00 46 1016.5
20260506023258 51 94 9.0 22.0 0.00 0.00 0.00 45 1016.4
20260506022754 52 98 8.0 18.0 0.00 0.00 0.00 45 1016.2
20260506022252 52 95 6.0 29.0 0.00 0.00 0.00 45 1016.0
20260506021750 52 109 17.0 27.0 0.00 0.00 0.00 44 1016.1
20260506021246 53 126 18.0 24.0 0.00 0.00 0.00 44 1015.9
20260506020743 53 129 16.0 27.0 0.00 0.00 0.00 43 1015.9
20260506020241 53 119 4.0 26.0 0.00 0.00 0.00 43 1015.8
20260506015738 54 100 12.0 21.0 0.00 0.00 0.00 42 1015.9
20260506015236 54 128 7.0 20.0 0.00 0.00 0.00 42 1016.0
20260506014732 55 107 5.0 22.0 0.00 0.00 0.00 41 1015.7
20260506014229 55 107 6.0 16.0 0.00 0.00 0.00 42 1015.7
20260506013726 56 71 6.0 14.0 0.00 0.00 0.00 41 1015.8
20260506013223 56 107 7.0 15.0 0.00 0.00 0.00 41 1015.9
20260506012719 57 95 4.0 12.0 0.00 0.00 0.00 39 1015.6
20260506012216 57 128 9.0 13.0 0.00 0.00 0.00 40 1015.6
20260506011714 57 66 4.0 12.0 0.00 0.00 0.00 39 1015.9
20260506011210 57 56 8.0 11.0 0.00 0.00 0.00 39 1015.8
20260506010709 57 64 7.0 13.0 0.00 0.00 0.00 39 1015.7
20260506010206 57 69 6.0 15.0 0.00 0.00 0.00 38 1015.5
20260506005702 58 97 5.0 19.0 0.00 0.00 0.00 38 1015.6
20260506005159 59 42 6.0 13.0 0.00 0.00 0.00 37 1015.5
20260506004655 59 104 5.0 16.0 0.00 0.00 0.00 37 1015.5
20260506004153 60 102 3.0 8.0 0.00 0.00 0.00 34 1015.6
20260506003649 61 129 0.0 5.0 0.00 0.00 0.00 34 1015.5
20260506003145 61 20 5.0 10.0 0.00 0.00 0.00 29 1015.5
20260506002641 60 270 3.0 11.0 0.00 0.00 0.00 28 1015.2
20260506002137 61 3 2.0 6.0 0.00 0.00 0.00 28 1015.2
20260506001633 61 12 4.0 8.0 0.00 0.00 0.00 28 1015.4
20260506001131 60 342 5.0 11.0 0.00 0.00 0.00 28 1015.5
20260506000628 60 339 5.0 14.0 0.00 0.00 0.00 27 1015.5
20260506000125 60 308 6.0 17.0 0.00 0.00 0.00 27 1015.1
20260505235623 61 1 5.0 9.0 0.00 0.00 0.00 27 1015.4
20260505235120 61 1 9.0 13.0 0.00 0.00 0.00 27 1015.0
20260505234617 62 288 2.0 7.0 0.00 0.00 0.00 29 1015.0
20260505234114 60 69 5.0 15.0 0.00 0.00 0.00 28 1014.9
20260505233611 61 3 14.0 18.0 0.00 0.00 0.00 26 1015.4
20260505233109 60 307 3.0 15.0 0.00 0.00 0.00 27 1015.2
20260505232606 61 0 7.0 14.0 0.00 0.00 0.00 26 1015.1
20260505232104 61 328 3.0 18.0 0.00 0.00 0.00 25 1014.9
20260505231600 61 320 9.0 14.0 0.00 0.00 0.00 27 1015.1
20260505231059 61 345 8.0 19.0 0.00 0.00 0.00 27 1015.1
20260505230556 61 49 3.0 11.0 0.00 0.00 0.00 28 1014.9
20260505230052 62 24 3.0 7.0 0.00 0.00 0.00 28 1015.4
20260505225549 61 302 8.0 18.0 0.00 0.00 0.00 27 1015.0
20260505225045 62 302 10.0 20.0 0.00 0.00 0.00 27 1014.9
20260505224542 62 273 7.0 12.0 0.00 0.00 0.00 28 1015.0
20260505224040 62 354 6.0 15.0 0.00 0.00 0.00 28 1014.9
20260505223537 62 282 4.0 10.0 0.00 0.00 0.00 28 1015.0
20260505223033 61 39 5.0 14.0 0.00 0.00 0.00 26 1014.8
20260505222529 62 346 6.0 18.0 0.00 0.00 0.00 27 1014.9
20260505222025 61 36 2.0 19.0 0.00 0.00 0.00 29 1015.1
20260505221523 61 340 8.0 11.0 0.00 0.00 0.00 28 1015.1
20260505221019 61 319 6.0 17.0 0.00 0.00 0.00 29 1015.0
20260505220516 62 350 9.0 14.0 0.00 0.00 0.00 29 1015.0
20260505220014 62 309 6.0 12.0 0.00 0.00 0.00 28 1015.4
20260505215512 62 330 6.0 15.0 0.00 0.00 0.00 30 1015.1
20260505215010 62 315 5.0 12.0 0.00 0.00 0.00 31 1015.1
20260505214508 62 334 4.0 15.0 0.00 0.00 0.00 32 1015.0
20260505214004 61 286 10.0 17.0 0.00 0.00 0.00 32 1014.8
20260505213502 61 279 3.0 16.0 0.00 0.00 0.00 31 1014.9
20260505212958 62 353 4.0 13.0 0.00 0.00 0.00 29 1015.0
20260505212455 62 237 13.0 18.0 0.00 0.00 0.00 31 1014.8
20260505211951 62 290 6.0 13.0 0.00 0.00 0.00 33 1014.8
20260505211449 62 14 5.0 9.0 0.00 0.00 0.00 31 1014.8
20260505210945 62 262 6.0 11.0 0.00 0.00 0.00 30 1015.0
20260505210442 62 7 6.0 15.0 0.00 0.00 0.00 28 1014.8
20260505205939 62 303 6.0 8.0 0.00 0.00 0.00 33 1014.8
20260505205438 62 13 5.0 12.0 0.00 0.00 0.00 31 1015.0
20260505204934 63 250 5.0 10.0 0.00 0.00 0.00 31 1015.1
20260505204432 62 279 3.0 9.0 0.00 0.00 0.00 34 1015.0
20260505203929 61 324 3.0 13.0 0.00 0.00 0.00 31 1015.0
20260505203425 61 356 5.0 8.0 0.00 0.00 0.00 33 1015.0
20260505202921 59 45 3.0 7.0 0.00 0.00 0.00 34 1015.1
20260505202418 59 180 2.0 6.0 0.00 0.00 0.00 34 1014.8
20260505201915 58 200 5.0 9.0 0.00 0.00 0.00 34 1015.1
20260505201412 59 341 4.0 5.0 0.00 0.00 0.00 32 1014.8
20260505200910 61 106 2.0 5.0 0.00 0.00 0.00 30 1015.2
20260505200407 59 267 6.0 9.0 0.00 0.00 0.00 32 1015.0
20260505195902 60 0 0.0 5.0 0.00 0.00 0.00 31 1015.1
20260505195400 58 140 2.0 7.0 0.00 0.00 0.00 31 1015.1
20260505194857 60 318 3.0 3.0 0.00 0.00 0.00 32 1015.2
20260505194354 59 255 5.0 9.0 0.00 0.00 0.00 33 1015.4
20260505193849 58 293 6.0 10.0 0.00 0.00 0.00 33 1015.1
20260505193347 58 254 6.0 11.0 0.00 0.00 0.00 35 1015.2
20260505192844 59 288 7.0 13.0 0.00 0.00 0.00 33 1015.4
20260505192342 59 83 3.0 4.0 0.00 0.00 0.00 29 1015.5
20260505191839 60 299 6.0 8.0 0.00 0.00 0.00 30 1015.6
20260505191338 59 268 6.0 8.0 0.00 0.00 0.00 33 1015.5
20260505190834 60 7 4.0 5.0 0.00 0.00 0.00 32 1015.6
20260505190330 59 270 2.0 9.0 0.00 0.00 0.00 32 1015.5
20260505185826 60 282 6.0 6.0 0.00 0.00 0.00 29 1015.8
20260505185322 59 307 5.0 5.0 0.00 0.00 0.00 35 1015.8
20260505184819 58 349 3.0 7.0 0.00 0.00 0.00 31 1015.8
20260505184316 59 315 5.0 6.0 0.00 0.00 0.00 30 1015.8
20260505183813 57 350 7.0 8.0 0.00 0.00 0.00 33 1015.8
20260505183310 58 21 4.0 7.0 0.00 0.00 0.00 29 1015.8
20260505182806 56 229 3.0 8.0 0.00 0.00 0.00 31 1015.8
20260505182306 56 352 0.0 5.0 0.00 0.00 0.00 29 1015.7
20260505181800 57 297 5.0 8.0 0.00 0.00 0.00 30 1016.0
20260505181257 57 346 5.0 11.0 0.00 0.00 0.00 30 1016.0
20260505180754 57 336 7.0 9.0 0.00 0.00 0.00 31 1016.0
20260505180250 58 298 4.0 7.0 0.00 0.00 0.00 35 1015.9
20260505175747 56 276 5.0 10.0 0.00 0.00 0.00 35 1015.9
20260505175243 56 322 4.0 9.0 0.00 0.00 0.00 32 1015.9
20260505174740 57 244 0.0 9.0 0.00 0.00 0.00 34 1016.0
20260505174237 57 270 3.0 5.0 0.00 0.00 0.00 35 1016.0
20260505173733 57 48 4.0 6.0 0.00 0.00 0.00 34 1015.9
20260505173230 56 17 4.0 7.0 0.00 0.00 0.00 34 1015.9
20260505172727 56 281 6.0 9.0 0.00 0.00 0.00 32 1016.0
20260505172224 57 23 3.0 7.0 0.00 0.00 0.00 32 1016.1
20260505171723 56 38 3.0 6.0 0.00 0.00 0.00 32 1016.0
20260505171221 55 312 5.0 9.0 0.00 0.00 0.00 32 1016.2
20260505170717 57 351 4.0 7.0 0.00 0.00 0.00 35 1016.1
20260505170214 56 17 2.0 5.0 0.00 0.00 0.00 34 1016.1
20260505165710 56 74 2.0 7.0 0.00 0.00 0.00 35 1016.1
20260505165206 56 25 5.0 7.0 0.00 0.00 0.00 34 1016.2
20260505164701 56 21 5.0 7.0 0.00 0.00 0.00 35 1016.6
20260505164159 55 48 2.0 10.0 0.00 0.00 0.00 36 1016.2
20260505163657 55 40 3.0 8.0 0.00 0.00 0.00 33 1016.5
20260505163155 55 45 5.0 11.0 0.00 0.00 0.00 35 1016.6
20260505162652 55 90 5.0 7.0 0.00 0.00 0.00 35 1016.4
20260505162149 56 36 3.0 4.0 0.00 0.00 0.00 37 1016.6
20260505161646 55 56 4.0 8.0 0.00 0.00 0.00 37 1016.5
20260505161143 55 105 4.0 12.0 0.00 0.00 0.00 37 1016.6
20260505160641 55 26 3.0 10.0 0.00 0.00 0.00 37 1016.7
20260505160138 54 106 8.0 13.0 0.00 0.00 0.00 36 1016.7
20260505153118 54 109 10.0 14.0 0.00 0.00 0.00 38 1016.5
20260505152614 53 45 3.0 7.0 0.00 0.00 0.00 40 1016.7
20260505152110 53 68 6.0 13.0 0.00 0.00 0.00 39 1016.8
20260505151605 53 96 1.0 8.0 0.00 0.00 0.00 40 1016.7
20260505151103 52 103 5.0 9.0 0.00 0.00 0.00 40 1016.8
20260505150559 49 0 0.0 4.0 0.00 0.00 0.00 50 1016.9
20260505140525 43 236 2.0 3.0 0.00 0.00 0.00 57 1016.4
20260505124938 42 120 0.0 2.0 0.00 0.00 0.00 56 1015.7
20260505124435 43 192 0.0 3.0 0.00 0.00 0.00 54 1015.6
20260505123931 43 23 0.0 3.0 0.00 0.00 0.00 54 1015.6
20260505123428 43 74 2.0 5.0 0.00 0.00 0.00 55 1015.4
20260505122923 43 98 3.0 5.0 0.00 0.00 0.00 54 1015.6
20260505122421 43 270 1.0 4.0 0.00 0.00 0.00 53 1015.6
20260505121918 43 180 2.0 5.0 0.00 0.00 0.00 53 1015.5
20260505121415 43 260 0.0 2.0 0.00 0.00 0.00 53 1015.4
20260505120910 43 156 2.0 3.0 0.00 0.00 0.00 53 1015.5
20260505120407 42 117 0.0 2.0 0.00 0.00 0.00 55 1015.7
20260505115906 43 164 0.0 3.0 0.00 0.00 0.00 54 1015.6
20260505115403 42 341 2.0 4.0 0.00 0.00 0.00 54 1015.5
20260505114901 42 168 2.0 2.0 0.00 0.00 0.00 55 1015.5
20260505114357 42 120 1.0 2.0 0.00 0.00 0.00 56 1015.6
20260505113853 42 126 1.0 2.0 0.00 0.00 0.00 57 1015.6
20260505113350 42 194 0.0 3.0 0.00 0.00 0.00 55 1015.9
20260505112846 42 154 2.0 3.0 0.00 0.00 0.00 55 1015.9
20260505112344 42 196 2.0 2.0 0.00 0.00 0.00 54 1015.6
20260505111839 42 262 0.0 2.0 0.00 0.00 0.00 56 1015.7
20260505111335 41 123 0.0 1.0 0.00 0.00 0.00 57 1015.7
20260505110831 41 109 2.0 3.0 0.00 0.00 0.00 60 1015.8
20260505110328 42 356 2.0 2.0 0.00 0.00 0.00 56 1015.5
20260505101803 43 166 2.0 2.0 0.00 0.00 0.00 53 1015.4
20260505101258 43 15 0.0 3.0 0.00 0.00 0.00 52 1015.7
20260505100755 43 63 0.0 2.0 0.00 0.00 0.00 53 1015.6
20260505100251 42 135 2.0 2.0 0.00 0.00 0.00 54 1015.5
20260505095747 42 157 2.0 2.0 0.00 0.00 0.00 54 1015.2
20260505095245 42 166 2.0 3.0 0.00 0.00 0.00 55 1015.7
20260505094740 42 111 1.0 2.0 0.00 0.00 0.00 53 1015.7
20260505094237 42 61 2.0 3.0 0.00 0.00 0.00 54 1015.5
20260505093733 42 114 1.0 3.0 0.00 0.00 0.00 54 1015.2
20260505093231 42 90 1.0 2.0 0.00 0.00 0.00 54 1015.2
20260505092728 42 60 2.0 3.0 0.00 0.00 0.00 54 1015.7
20260505092227 43 94 3.0 3.0 0.00 0.00 0.00 54 1015.5
20260505091723 43 105 2.0 3.0 0.00 0.00 0.00 53 1015.2
20260505091221 43 94 3.0 3.0 0.00 0.00 0.00 53 1015.4
20260505090719 44 117 2.0 3.0 0.00 0.00 0.00 52 1015.5
20260505090217 44 94 2.0 4.0 0.00 0.00 0.00 51 1015.6
20260505085714 44 115 3.0 4.0 0.00 0.00 0.00 53 1015.4
20260505085212 44 135 0.0 0.0 0.00 0.00 0.00 52 1015.5
20260505084709 44 145 0.0 2.0 0.00 0.00 0.00 52 1015.6
20260505084208 44 108 3.0 3.0 0.00 0.00 0.00 54 1015.5
20260505083704 45 105 2.0 3.0 0.00 0.00 0.00 54 1015.2
20260505083201 45 81 2.0 3.0 0.00 0.00 0.00 54 1015.6
20260505082657 45 98 0.0 2.0 0.00 0.00 0.00 53 1015.4
20260505082155 46 114 1.0 3.0 0.00 0.00 0.00 51 1015.5
20260505081650 47 90 0.0 3.0 0.00 0.00 0.00 49 1015.5
20260505081148 46 87 3.0 5.0 0.00 0.00 0.00 50 1015.4
20260505080645 46 180 2.0 2.0 0.00 0.00 0.00 50 1015.2